Regional Weather Roundup
Issued by NWS

Home | Current Version | Previous Version | Graphics & Text | Print | Product List | Glossary Off
Versions: 1 2 3 4 5 6 7 8 9 10 11 12 13 14 15 16 17 18 19 20 21 22 23 24 25 26 27 28 29 30 31 32 33 34 35 36 37 38 39 40 41 42 43 44 45 46 47 48 49 50

000
ASUS43 KDMX 020007
RWRIA

WEATHER ROUNDUP FOR IOWA
NATIONAL WEATHER SERVICE DES MOINES IA
700 PM CDT WED OCT 01 2014

NOTE: "FAIR" INDICATES FEW OR NO CLOUDS BELOW 12,000 FEET WITH NO
SIGNIFICANT WEATHER AND/OR OBSTRUCTIONS TO VISIBILITY.

* - THESE STATIONS ARE NOT NWS STATIONS...THUS NOT UNDER NWS
QUALITY CONTROL.  THEY ALSO DO NOT REPORT WEATHER SUCH
AS PRECIPITATION OR FOG.

IAZ001>003-012>014-020>022-031>034-043>046-020100-
   NORTHWEST IOWA

CITY           SKY/WX    TMP DP  RH WIND       PRES   REMARKS
CARROLL *      CLEAR     66  63  88 SE6       29.76R
CHEROKEE *     PTCLDY    69  62  77 CALM      29.75R
DENISON *      CLEAR     70  64  83 CALM      29.75R
LE MARS *      MOCLDY    72  61  68 W5        29.75R
ORANGE CITY *  PTCLDY    72  57  60 NW5       29.76R
SHELDON *      MOCLDY    72  59  64 NW3       29.75R
SIOUX CITY     PTCLDY    74  58  57 NW5       29.74R
6HR MIN TEMP:  72; 6HR MAX TEMP:  80; 6HR PCP:  0.02;

SPENCER        MOCLDY    65  59  81 SE7       29.76R
6HR MIN TEMP:  61; 6HR MAX TEMP:  72;

STORM LAKE *   CLEAR     68  59  73 CALM      29.77R
$$

IAZ055>058-069>071-079>083-090>094-020100-
   SOUTHWEST IOWA

CITY           SKY/WX    TMP DP  RH WIND       PRES   REMARKS
ATLANTIC *     PTCLDY    70  66  88 CALM      29.75R
AUDUBON *      PTCLDY    66  61  82 CALM      29.78R
CLARINDA *     CLEAR     72  66  83 SE7       29.76R
COUNCIL BLFS * CLEAR     70  66  88 N5        29.74S
CRESTON *      PTCLDY    66  64  94 E6        29.78R
HARLAN  *      CLEAR     70  63  78 CALM      29.79R
LAMONI         CLEAR     68  65  90 SE3       29.77S
6HR MIN TEMP:  65; 6HR MAX TEMP:  70;

RED OAK *      PTCLDY    70  66  88 N6        29.75R
SHENANDOAH *   CLEAR     72  66  83 CALM      29.74R
$$

IAZ047>049-059>061-072>074-084-020100-
   CENTRAL IOWA

CITY           SKY/WX    TMP DP  RH WIND       PRES   REMARKS
AMES           CLOUDY    67  63  87 SE3       29.78R
6HR MIN TEMP:  66; 6HR MAX TEMP:  71;

ANKENY *       PTCLDY    66  64  94 CALM      29.77R
CHARITON *     MOCLDY    66  64  94 SE5       29.78S
DES MOINES     CLOUDY    69  63  81 S5        29.77R
6HR MIN TEMP:  69; 6HR MAX TEMP:  72;

GRINNELL*      MOCLDY    66  62  87 SE7       29.79F
KNOXVILLE *    CLOUDY    68  64  88 SE6       29.77S
MARSHALLTOWN   CLOUDY    68  63  84 S5        29.78S
6HR MIN TEMP:  66; 6HR MAX TEMP:  70;

PELLA *        CLOUDY    68  64  88 SE3       29.80S
PERRY *        MOCLDY    69  64  85 SE5       29.77R
$$

IAZ004>006-015-016-023>025-035-036-020100-
   NORTH CENTRAL IOWA

CITY           SKY/WX    TMP DP  RH WIND       PRES   REMARKS
ALGONA *       PTCLDY    66  63  88 SE5       29.78R
CLARION *      CLEAR     64  63  94 SE6       29.78S
ESTHERVILLE    PTCLDY    64  59  83 SE3       29.77R
6HR MIN TEMP:  59; 6HR MAX TEMP:  70;

FORT DODGE *   MOCLDY    66  63  88 SE5       29.78R
MASON CITY     MOCLDY    61  59  93 E5        29.81R
6HR MIN TEMP:  56; 6HR MAX TEMP:  65; 6HR PCP:  0.01;

FOREST CITY *  CLEAR     61  61 100 E3        29.79R
IOWA FALLS *   CLOUDY    66  61  82 E3        29.79S
$$

IAZ007>011-017>019-026>030-037>042-050>054-066-020100-
   NORTHEAST IOWA

CITY           SKY/WX    TMP DP  RH WIND       PRES   REMARKS
CEDAR RAPIDS   CLOUDY    64  63  94 SE5       29.81S
CHARLES CITY * CLOUDY    66  61  82 CALM      29.81R
CLINTON *      PTCLDY    66  57  72 S3        29.86S
DECORAH *      CLOUDY    63  57  82 SE5       29.80F
MONTICELLO *   CLOUDY    68  59  73 SE6       29.82S
OELWEIN *      CLOUDY    66  61  82 SE12      29.82R
WATERLOO       CLOUDY    68  61  78 S7        29.79R
6HR MIN TEMP:  62; 6HR MAX TEMP:  71; 6HR PCP: TRACE;

$$

IAZ064-065-067-068-078-020100-
   EAST CENTRAL IOWA

CITY           SKY/WX    TMP DP  RH WIND       PRES   REMARKS
IOWA CITY      CLOUDY    66  62  87 SE5       29.82S
6HR MIN TEMP:  61; 6HR MAX TEMP:  69; 6HR PCP: TRACE;

MT. PLEASANT * CLOUDY    66  64  91 CALM      29.80S
MUSCATINE *    MOCLDY    68  63  83 CALM      29.82R
QUAD CITIES    CLOUDY    69  60  73 CALM      29.82S
6HR MIN TEMP:  69; 6HR MAX TEMP:  72; 6HR PCP: TRACE;

$$

IAZ062-063-075>077-085>089-095>099-020100-
   SOUTHEAST IOWA

CITY           SKY/WX    TMP DP  RH WIND       PRES   REMARKS
BURLINGTON     MOCLDY    66  64  93 S6        29.80S
6HR MIN TEMP:  63; 6HR MAX TEMP:  66; 6HR PCP:  0.10;

FAIRFIELD *    CLOUDY    64  63  94 SE6       29.81R
FORT MADISON * MOCLDY    66  64  94 CALM      29.81R
KEOKUK *       MOCLDY    66  64  94 SE8       29.79S
OSKALOOSA *    CLOUDY    66  64  90 S5        29.80R
CENTERVILLE *  CLOUDY    66  66 100 CALM      29.80F
OTTUMWA        CLOUDY    66  62  87 S6        29.79S
6HR MIN TEMP:  63; 6HR MAX TEMP:  70; 6HR PCP: TRACE;

WASHINGTON *   CLOUDY    66  64  94 S6        29.81S
$$

ABBREVIATIONS USED IN REMARKS
   TC - TEMPERATURES IN CELSIUS
  WCI - WIND CHILL INDEX
   HX - HEAT INDEX
  VSB - VISIBILITY
$$




USA.gov is the U.S. government's official web portal to all federal, state and local government web resources and services.